VIASAT-3 F1

Last updated on Tue Sep 22 2026 00:03:16 GMT+0000 (Coordinated Universal Time)

1 56370U 23060A 26263.82995632 .00000000 00000+0 00000+0 0 9993 2 56370 0.0202 191.5261 0000602 349.5786 28.4374 1.00269293 12397
UTC large
Height (km)
Speed (km/s)
/
Latitude / Longitude
Inclination (degrees)
Orbital Period (minutes)
Azimuth
Elevation
Range (km)
Doppler Factor

Next 0 passes for location: London (51.5072 / 0.1276)

No passes found over London.
VIASAT-3 F1